Location: Unspecified
(43.3830°N, 0.0000°E)
Time: 18:29:46
(UTC+00:00)

Explorer 7 - Pass Details

Date: 04 July 2019
Orbit: 485 x 680 km, 50.3° (Epoch: 18 July)

Event Time Altitude Azimuth Distance (km) Brightness Sun altitude
Rises 11:21:38 0° 289° (WNW) 2,857 10.3 67.7°
Reaches altitude 10° 11:24:23 10° 272° (W) 1,987 9.7 67.9°
Maximum altitude 11:27:40 20° 227° (SW) 1,491 9.4 68.1°
Drops below altitude 10° 11:31:03 10° 181° (S) 2,054 10.2 68.4°
Sets 11:33:58 0° 164° (SSE) 2,986 10.9 68.5°
